Salt Lake City, UT

4:08 PM MDT on June 24, 2018 (GMT -0600)
Salt Lake City International

Weather History for KSLC - October, 2017

Change the Weather History Date:

Thursday, October 12, 2017

  Actual Average Record
Temperature  
Mean Temperature 51 °F 54 °F  
Max Temperature 58 °F 67 °F 86 °F (1996)
Min Temperature 43 °F 43 °F 28 °F (1986)
Degree Days  
Heating Degree Days 14 11  
Month to date heating degree days 143 105  
Since 1 July heating degree days 274 194  
Cooling Degree Days 0 0  
Month to date cooling degree days 0 5  
Year to date cooling degree days 1758 1158  
Moisture  
Dew Point 25 °F    
Average Humidity 36    
Maximum Humidity 53    
Minimum Humidity 18    
Precipitation  
Precipitation 0.00 in 0.04 in 0.64 in (1904)
Month to date precipitation 0.11 0.56  
Year to date precipitation 13.98 12.28  
Snow  
Snow 0.00 in 0.00 in 1.50 in (1899)
Month to date snowfall 0.0 0.2  
Since 1 July snowfall 0.0 0.2  
Snow Depth 0.00 in    
Sea Level Pressure  
Sea Level Pressure 30.04 in    
Wind  
Wind Speed 10 mph (NW)    
Max Wind Speed 15 mph    
Max Gust Speed 19 mph    
Visibility 10 miles    
Events      
T = Trace of Precipitation, MM = Missing Value Source: NWS Daily Summary

Daily Weather History Graph

Daily Weather History Graph

Search for Another Location

Airport or City:

Astronomy

Oct. 12, 2017 Rise Set
Actual Time 7:36 AM MDT 6:51 PM MDT
Civil Twilight 7:08 AM MDT 7:19 PM MDT
Nautical Twilight 6:37 AM MDT 7:50 PM MDT
Astronomical Twilight 6:05 AM MDT 8:22 PM MDT
Moon No Moon Rise 2:51 PM MDT (10/12)
Length of Visible Light 12h 10m
Length of Day
11h 15m
Waning Gibbous, 48% of the Moon is Illuminated
Oct 12
Waning Gibbous
Oct 19
New
Oct 27
First Quarter
Nov 3
Full
Nov 10
Last Quarter

Hourly Weather History & Observations

Time (MDT) Temp. Windchill Dew Point Humidity Pressure Visibility Wind Dir Wind Speed Gust Speed Precip Events Conditions
12:54 AM 54.0 °F - 36.0 °F 51% 29.78 in 10.0 mi WNW 10.4 mph - N/A   Mostly Cloudy
1:54 AM 53.1 °F - 34.0 °F 48% 29.83 in 10.0 mi WNW 10.4 mph - N/A   Scattered Clouds
2:54 AM 52.0 °F - 34.0 °F 50% 29.87 in 10.0 mi WNW 10.4 mph - N/A   Scattered Clouds
3:54 AM 51.1 °F - 30.9 °F 46% 29.90 in 10.0 mi NW 12.7 mph - N/A   Mostly Cloudy
4:54 AM 50.0 °F - 32.0 °F 50% 29.94 in 10.0 mi NW 6.9 mph - N/A   Scattered Clouds
5:54 AM 48.9 °F - 30.9 °F 50% 29.99 in 10.0 mi North 3.5 mph - N/A   Scattered Clouds
6:54 AM 48.9 °F - 28.0 °F 44% 30.02 in 10.0 mi NNW 8.1 mph - N/A   Mostly Cloudy
7:54 AM 45.0 °F 41.2 °F 28.9 °F 53% 30.06 in 10.0 mi NW 6.9 mph - N/A   Mostly Cloudy
8:54 AM 46.0 °F 41.0 °F 27.0 °F 47% 30.09 in 10.0 mi NNW 10.4 mph - N/A   Partly Cloudy
9:54 AM 48.9 °F - 26.1 °F 41% 30.10 in 10.0 mi NNW 11.5 mph - N/A   Clear
10:54 AM 51.1 °F - 26.1 °F 38% 30.11 in 10.0 mi NNW 8.1 mph - N/A   Clear
11:54 AM 53.1 °F - 25.0 °F 34% 30.10 in 10.0 mi NW 6.9 mph - N/A   Partly Cloudy
12:54 PM 55.0 °F - 12.9 °F 19% 30.10 in 10.0 mi NNW 9.2 mph - N/A   Partly Cloudy
1:54 PM 55.9 °F - 17.1 °F 22% 30.08 in 10.0 mi NW 10.4 mph 16.1 mph N/A   Clear
2:54 PM 55.9 °F - 18.0 °F 23% 30.07 in 10.0 mi NW 8.1 mph - N/A   Clear
3:54 PM 57.0 °F - 19.0 °F 23% 30.07 in 10.0 mi NNW 8.1 mph - N/A   Clear
4:54 PM 57.0 °F - 18.0 °F 22% 30.06 in 10.0 mi North 8.1 mph - N/A   Clear
5:54 PM 55.9 °F - 19.9 °F 25% 30.07 in 10.0 mi NNW 8.1 mph - N/A   Clear
6:54 PM 51.1 °F - 23.0 °F 33% 30.09 in 10.0 mi North 8.1 mph - N/A   Partly Cloudy
7:54 PM 48.9 °F - 19.9 °F 32% 30.10 in 10.0 mi NNW 9.2 mph - N/A   Partly Cloudy
8:54 PM 46.0 °F 44.8 °F 25.0 °F 44% 30.11 in 10.0 mi SSW 3.5 mph - N/A   Clear
9:54 PM 46.0 °F 43.1 °F 24.1 °F 42% 30.09 in 10.0 mi South 5.8 mph - N/A   Clear
10:54 PM 45.0 °F 41.2 °F 23.0 °F 42% 30.09 in 10.0 mi SE 6.9 mph - N/A   Clear
11:54 PM 44.1 °F 40.8 °F 25.0 °F 47% 30.09 in 10.0 mi SE 5.8 mph - N/A   Clear